Regional Weather Roundup
Issued by NWS

Home | Current Version | Previous Version | Text Only | Print | Product List | Glossary Off
Versions: 1 2 3 4 5 6 7 8 9 10 11 12 13 14 15 16 17 18 19 20 21 22 23 24 25 26 27 28 29 30 31 32 33 34 35 36 37 38 39 40 41 42 43 44 45 46 47 48 49 50

000
ASUS43 KIND 250900
RWRIN

WEATHER ROUNDUP FOR INDIANA
NATIONAL WEATHER SERVICE INDIANAPOLIS IN
500 AM EDT TUE JUL 25 2017

NOTE: "FAIR" INDICATES FEW OR NO CLOUDS BELOW 12,000 FEET WITH NO
SIGNIFICANT WEATHER AND/OR OBSTRUCTIONS TO VISIBILITY.

* - STATION DOES NOT REPORT WEATHER SUCH AS PRECIPITATION OR FOG.

+ - STATION NOT QUALITY CONTROLLED BY THE NATIONAL WEATHER SERVICE.
    USE DATA WITH CAUTION...ESPECIALLY DEWPOINT AND RELATIVE
    HUMIDITY OBSERVATIONS.

INZ001>003-010>013-019-020-251000-
NORTHWEST INDIANA

CITY           SKY/WX    TMP DP  RH WIND       PRES   REMARKS
MICHIGAN CITY+ PTCLDY    55  55 100 CALM      30.17R FOG
MONTICELLO +   PTCLDY    60  59  96 CALM      30.14R
RENSSELAER +   CLEAR     59  55  88 NE3       30.16R
VALPARAISO     PTCLDY    59  59 100 CALM      30.17R FOG

$$

LMZ046-743>745-251000-
SOUTHERN LAKE MICHIGAN

STATION/POSITION TIME  TEMP    WIND        PRES    WAVE
                       AIR SEA DIR/SP/G            HT
                 (UTC) (F)     (DEG/KT/KT) (MB)    (FT)
BURNS HARBOR     0840   67     110/  8/ 10 1021.3R
MICHIGAN CITY    0830   64     110/  5/  6   N/A
5NW MICH CITY    0850   68 74  120/  8/ 10   N/A     3

$$

INZ004-005-014>016-021>024-251000-
NORTH CENTRAL INDIANA

CITY           SKY/WX    TMP DP  RH WIND       PRES   REMARKS
GOSHEN         CLEAR     55  52  89 CALM      30.16S
SOUTH BEND     CLEAR     58  57  97 CALM      30.17R

$$

INZ006>009-017-018-025>027-251000-
NORTHEAST INDIANA

CITY           SKY/WX    TMP DP  RH WIND       PRES   REMARKS
FORT WAYNE     PTCLDY    57  54  89 CALM      30.16S
KENDALLVILLE + CLEAR     55  54  97 E3        30.17S

$$

INZ028-029-035-036-043>045-051>053-251000-
WEST CENTRAL INDIANA

CITY           SKY/WX    TMP DP  RH WIND       PRES   REMARKS
LAFAYETTE      CLEAR     62  59  90 CALM      30.14R
TERRE HAUTE    CLEAR     65  60  84 E3        30.12R

$$

INZ030>032-037>040-046>048-054>057-064-065-251000-
CENTRAL INDIANA

CITY           SKY/WX    TMP DP  RH WIND       PRES   REMARKS
GREENWOOD *+   CLEAR    N/A N/A N/A E5        30.15S
INDIANAPOLIS   CLEAR     64  57  78 E6        30.13R
-EAGLE CREEK   CLEAR     62  57  83 CALM      30.14R
KOKOMO +       CLEAR     59  57  93 CALM      30.16R
MT COMFORT *+  CLEAR     57  55  94 E3        30.15R
SHELBYVILLE    CLEAR     60  56  86 NE6       30.13R

$$

INZ033-034-041-042-049-050-058-059-251000-
EAST CENTRAL INDIANA

CITY           SKY/WX    TMP DP  RH WIND       PRES   REMARKS
MUNCIE         CLEAR     57  54  89 CALM      30.15R
RICHMOND +     CLEAR     55  55 100 CALM      30.16R

$$

INZ060-061-067>069-081>083-085>088-251000-
SOUTHWEST INDIANA

CITY           SKY/WX    TMP DP  RH WIND       PRES   REMARKS
EVANSVILLE     PTCLDY    71  67  87 NE7       30.06S
HUNTINGBURG *+ CLEAR     69  66  90 NE7       30.08R

$$

INZ062-063-066-070>080-084-089>092-251000-
SOUTH CENTRAL AND SOUTHEAST INDIANA

CITY           SKY/WX    TMP DP  RH WIND       PRES   REMARKS
BLOOMINGTON    CLEAR     65  58  78 E6        30.13R
MADISON *+     CLEAR     64  59  82 NE7       30.14R
SEYMOUR +      MOCLDY   N/A N/A N/A NE3       30.12R

$$





USA.gov is the U.S. government's official web portal to all federal, state and local government web resources and services.